EN

Hourly Weather Kitzingen

Today, 18 September, Saturday

Time Temperature Precipitation Wind Pressure Humidity
00:00 +12°C° 0 mm 0 mps 742 mmHg 86%
01:00 +12°C° 0 mm 0 mps 742 mmHg 86%
02:00 +12°C° 0 mm 0 mps 742 mmHg 87%
03:00 +12°C° 0 mm 0 mps 742 mmHg 87%
04:00 +11°C° 0 mm 0 mps 742 mmHg 88%
05:00 +12°C° 0 mm 0 mps 742 mmHg 87%
06:00 +12°C° 0 mm 0 mps 742 mmHg 85%
07:00 +14°C° 0 mm 1 mps 742 mmHg 84%
08:00 +15°C° 0 mm 1 mps 742 mmHg 80%
09:00 +16°C° 0 mm 1 mps 743 mmHg 75%
10:00 +19°C° 0 mm 1 mps 743 mmHg 71%
11:00 +20°C° 0 mm 1 mps 743 mmHg 66%
12:00 +21°C° 0 mm 1 mps 742 mmHg 62%
13:00 +22°C° 0 mm 1 mps 742 mmHg 58%
14:00 +22°C° 0.1 mm 1 mps 742 mmHg 58%
15:00 +22°C° 0.1 mm 1 mps 742 mmHg 59%
16:00 +21°C° 0.1 mm 2 mps 741 mmHg 59%
17:00 +19°C° 0 mm 2 mps 741 mmHg 64%
18:00 +18°C° 0 mm 2 mps 741 mmHg 70%
19:00 +16°C° 0 mm 2 mps 742 mmHg 75%
20:00 +16°C° 0 mm 2 mps 742 mmHg 79%
21:00 +15°C° 0 mm 2 mps 742 mmHg 82%
22:00 +14°C° 0 mm 2 mps 742 mmHg 86%
23:00 +13°C° 0 mm 2 mps 742 mmHg 88%

Tomorrow, 19 September, Sunday

Time Temperature Precipitation Wind Pressure Humidity
00:00 +13°C° 0 mm 2 mps 742 mmHg 90%
01:00 +12°C° 0 mm 2 mps 742 mmHg 93%
02:00 +12°C° 0 mm 2 mps 741 mmHg 94%
03:00 +12°C° 0 mm 2 mps 741 mmHg 94%
04:00 +10°C° 0 mm 2 mps 741 mmHg 95%
05:00 +10°C° 0 mm 2 mps 741 mmHg 95%
06:00 +10°C° 0 mm 2 mps 741 mmHg 94%
07:00 +10°C° 0 mm 2 mps 741 mmHg 94%
08:00 +13°C° 0 mm 2 mps 741 mmHg 86%
09:00 +14°C° 0 mm 3 mps 741 mmHg 78%
10:00 +17°C° 0 mm 3 mps 741 mmHg 70%
11:00 +18°C° 0 mm 3 mps 741 mmHg 66%
12:00 +18°C° 0 mm 3 mps 741 mmHg 62%
13:00 +19°C° 0 mm 2 mps 741 mmHg 58%
14:00 +19°C° 0 mm 2 mps 741 mmHg 60%
15:00 +19°C° 0 mm 2 mps 741 mmHg 61%
16:00 +18°C° 0 mm 2 mps 741 mmHg 62%
17:00 +17°C° 0 mm 2 mps 741 mmHg 65%
18:00 +16°C° 0 mm 2 mps 742 mmHg 69%
19:00 +14°C° 0 mm 3 mps 742 mmHg 72%
20:00 +15°C° 0 mm 2 mps 742 mmHg 72%
21:00 +15°C° 0 mm 2 mps 743 mmHg 73%
22:00 +14°C° 0 mm 2 mps 743 mmHg 73%
23:00 +14°C° 0 mm 2 mps 743 mmHg 73%

Day after tomorrow, 20 September, Monday

Time Temperature Precipitation Wind Pressure Humidity
00:00 +14°C° 0 mm 1 mps 743 mmHg 73%
01:00 +14°C° 0 mm 1 mps 743 mmHg 72%
02:00 +13°C° 0 mm 1 mps 743 mmHg 73%
03:00 +13°C° 0 mm 1 mps 743 mmHg 73%
04:00 +13°C° 0 mm 1 mps 743 mmHg 74%
05:00 +13°C° 0 mm 1 mps 743 mmHg 74%
06:00 +12°C° 0 mm 1 mps 744 mmHg 74%
07:00 +12°C° 0 mm 1 mps 744 mmHg 74%
08:00 +13°C° 0 mm 1 mps 744 mmHg 70%
09:00 +14°C° 0 mm 2 mps 744 mmHg 66%
10:00 +15°C° 0 mm 2 mps 745 mmHg 62%
11:00 +16°C° 0 mm 2 mps 745 mmHg 59%
12:00 +17°C° 0 mm 2 mps 745 mmHg 56%
13:00 +18°C° 0 mm 2 mps 745 mmHg 53%
14:00 +18°C° 0 mm 2 mps 745 mmHg 52%
15:00 +18°C° 0 mm 2 mps 745 mmHg 51%
16:00 +19°C° 0 mm 2 mps 745 mmHg 51%
17:00 +17°C° 0 mm 2 mps 745 mmHg 55%
18:00 +16°C° 0 mm 1 mps 745 mmHg 60%
19:00 +14°C° 0 mm 1 mps 746 mmHg 64%
20:00 +13°C° 0 mm 1 mps 746 mmHg 67%
21:00 +12°C° 0 mm 1 mps 747 mmHg 70%
22:00 +12°C° 0 mm 2 mps 747 mmHg 73%
23:00 +11°C° 0 mm 1 mps 747 mmHg 75%

21 September, Tuesday

Time Temperature Precipitation Wind Pressure Humidity
00:00 +10°C° 0 mm 1 mps 747 mmHg 77%
01:00 +10°C° 0 mm 1 mps 748 mmHg 79%
02:00 +9°C° 0 mm 1 mps 748 mmHg 80%
03:00 +9°C° 0 mm 1 mps 748 mmHg 81%
04:00 +9°C° 0 mm 1 mps 748 mmHg 83%
05:00 +9°C° 0 mm 1 mps 748 mmHg 82%
06:00 +9°C° 0 mm 1 mps 749 mmHg 82%
07:00 +9°C° 0 mm 1 mps 749 mmHg 81%
08:00 +11°C° 0 mm 1 mps 749 mmHg 74%
09:00 +13°C° 0 mm 1 mps 750 mmHg 67%
10:00 +15°C° 0 mm 2 mps 750 mmHg 61%
11:00 +16°C° 0 mm 2 mps 750 mmHg 57%
12:00 +18°C° 0 mm 1 mps 750 mmHg 54%
13:00 +19°C° 0 mm 1 mps 750 mmHg 51%
14:00 +19°C° 0 mm 1 mps 750 mmHg 51%
15:00 +19°C° 0 mm 1 mps 750 mmHg 52%
16:00 +18°C° 0 mm 2 mps 750 mmHg 52%
17:00 +18°C° 0 mm 1 mps 750 mmHg 58%
18:00 +15°C° 0 mm 1 mps 750 mmHg 63%
19:00 +14°C° 0 mm 1 mps 750 mmHg 69%
20:00 +13°C° 0 mm 1 mps 751 mmHg 71%
21:00 +12°C° 0 mm 1 mps 751 mmHg 73%
22:00 +12°C° 0 mm 1 mps 751 mmHg 75%
23:00 +11°C° 0 mm 1 mps 751 mmHg 76%

22 September, Wednesday

Time Temperature Precipitation Wind Pressure Humidity
00:00 +11°C° 0 mm 1 mps 751 mmHg 77%
01:00 +10°C° 0 mm 1 mps 751 mmHg 78%
02:00 +10°C° 0 mm 1 mps 751 mmHg 79%
03:00 +10°C° 0 mm 1 mps 751 mmHg 79%
04:00 +9°C° 0 mm 1 mps 751 mmHg 80%
05:00 +9°C° 0 mm 1 mps 751 mmHg 80%
06:00 +10°C° 0 mm 1 mps 751 mmHg 80%
07:00 +10°C° 0 mm 1 mps 751 mmHg 80%
08:00 +11°C° 0 mm 1 mps 751 mmHg 74%
09:00 +13°C° 0 mm 1 mps 751 mmHg 68%
10:00 +15°C° 0 mm 1 mps 751 mmHg 62%
11:00 +16°C° 0 mm 1 mps 751 mmHg 59%
12:00 +18°C° 0 mm 1 mps 750 mmHg 56%
13:00 +19°C° 0 mm 1 mps 750 mmHg 52%
14:00 +19°C° 0 mm 1 mps 750 mmHg 53%
15:00 +19°C° 0 mm 1 mps 749 mmHg 53%
16:00 +17°C° 0 mm 0 mps 749 mmHg 53%
17:00 +15°C° 0 mm 0 mps 749 mmHg 58%
18:00 +14°C° 0 mm 0 mps 748 mmHg 64%
19:00 +12°C° 0 mm 0 mps 748 mmHg 69%
20:00 +12°C° 0 mm 0 mps 748 mmHg 71%
21:00 +11°C° 0 mm 0 mps 748 mmHg 73%
22:00 +12°C° 0 mm 1 mps 747 mmHg 75%
23:00 +11°C° 0 mm 1 mps 747 mmHg 76%

23 September, Thursday

Time Temperature Precipitation Wind Pressure Humidity
00:00 +11°C° 0 mm 1 mps 747 mmHg 77%
01:00 +11°C° 0 mm 1 mps 747 mmHg 79%
02:00 +11°C° 0 mm 1 mps 746 mmHg 80%
03:00 +10°C° 0 mm 1 mps 746 mmHg 80%
04:00 +9°C° 0 mm 2 mps 745 mmHg 81%
05:00 +10°C° 0 mm 1 mps 745 mmHg 81%
06:00 +10°C° 0 mm 1 mps 745 mmHg 81%
07:00 +11°C° 0 mm 1 mps 744 mmHg 80%
08:00 +13°C° 0 mm 2 mps 744 mmHg 74%
09:00 +15°C° 0 mm 2 mps 743 mmHg 67%
10:00 +17°C° 0 mm 3 mps 743 mmHg 61%
11:00 +18°C° 0 mm 4 mps 743 mmHg 59%
12:00 +19°C° 0 mm 4 mps 742 mmHg 56%
13:00 +20°C° 0 mm 5 mps 742 mmHg 54%
14:00 +20°C° 0 mm 5 mps 741 mmHg 55%
15:00 +20°C° 0 mm 5 mps 741 mmHg 56%
16:00 +20°C° 0 mm 5 mps 740 mmHg 57%
17:00 +19°C° 0 mm 4 mps 740 mmHg 62%
18:00 +17°C° 0 mm 4 mps 740 mmHg 66%
19:00 +15°C° 0 mm 4 mps 740 mmHg 71%
20:00 +14°C° 0 mm 4 mps 740 mmHg 75%
21:00 +14°C° 0 mm 4 mps 740 mmHg 79%
22:00 +13°C° 0 mm 4 mps 741 mmHg 82%
23:00 +12°C° 0 mm 3 mps 740 mmHg 82%
Show more

We Need Your Consent

Meteoprog and our Service Providers may store and access personal data such as cookies, device identifiers or other similar technologies on your device and process such data to personalise content and ads, as well as provide social media features and to analyse the traffic.

  • Store and/or access information on your device

    Cookies, device identifiers or other information can be stored or accessed on your device for the purposes indicated above.

  • Personalised ads and content, ad and content measurement, audience insights, and products development

    Ads and content can be personalised based on a profile. More data can be added to better personalise ads and content. Ad and content performance can be measured. Insights about the audience who saw the ads and content can be derived. Such data can be used to develop or improve user’s experience, systems and software.

By clicking ‘I Agree’ you will allow the use of indicated cookies, device identifiers, web beacons or other similar technologies. Your settings can be changed in the browser on your device.

For certain purposes, legitimate interests may be relied on, rather than consent. You can read more about this in our Privacy and Cookie Policy.